Location: Mesa Vista Observatory
(35.5777°N, 105.6987°W)
Time: 14:39:31
(UTC-06:00)

Hubble Space Telescope - Pass Details

Date: 20 June 2019
Orbit: 536 x 540 km, 28.5° (Epoch: 22 July)

Event Time Altitude Azimuth Distance (km) Brightness Sun altitude
Exits shadow 03:48:21 18° 148° (SSE) 1,355 2.6 -19.4°
Drops below altitude 10° 03:49:47 10° 133° (SE) 1,771 3.4 -19.2°
Sets 03:52:18 0° 120° (ESE) 2,660 4.4 -18.9°
